Regional Weather Roundup
Issued by NWS

Home | Current Version | Previous Version | Graphics & Text | Print | Product List | Glossary On
Versions: 1 2 3 4 5 6 7 8 9 10 11 12 13 14 15 16 17 18 19 20 21 22 23 24 25 26 27 28 29 30 31 32 33 34 35 36 37 38 39 40 41 42 43 44 45 46 47 48 49 50
000
ASUS43 KBIS 250802
RWRND

NORTH DAKOTA REGIONAL WEATHER ROUNDUP
NATIONAL WEATHER SERVICE BISMARCK ND
300 AM CDT TUE JUL 25 2017

NOTE: "FAIR" INDICATES FEW OR NO CLOUDS BELOW 12,000 FEET WITH NO
SIGNIFICANT WEATHER AND/OR OBSTRUCTIONS TO VISIBILITY.


NDZ001>003-009>011-017-250900-
NORTHWEST NORTH DAKOTA

CITY           SKY/WX    TMP DP  RH WIND       PRES   REMARKS
WILLISTON      CLOUDY    65  49  56 NE5       29.92R
MINOT          CLOUDY    68  57  68 W9        29.85R
MINOT AFB      CLOUDY    63  52  66 NW12      29.84R
$$

NDZ018>021-031>035-040>046-250900-
SOUTHWEST NORTH DAKOTA

CITY           SKY/WX    TMP DP  RH WIND       PRES   REMARKS
BISMARCK       CLEAR     69  66  90 NE3       29.84S
DICKINSON      CLEAR     64  57  78 CALM      29.88S
GARRISON         N/A     68  55  63 N5        29.84S
HETTINGER ARPT CLEAR     66  63  90 CALM      29.90S
$$

NDZ004>008-012>016-024-026-027-054-250900-
NORTHEAST NORTH DAKOTA

CITY           SKY/WX    TMP DP  RH WIND       PRES   REMARKS
GRAND FORKS    MOCLDY    68  65  90 S13       29.85S
GRND FRKS AFB  MOCLDY    67  64  87 S15       29.85S
DEVILS LAKE    CLOUDY    69  65  86 SW7       29.87R
$$

NDZ022-023-025-028>030-036>039-047>053-250900-
SOUTHEAST NORTH DAKOTA

CITY           SKY/WX    TMP DP  RH WIND       PRES   REMARKS
FARGO          CLOUDY    70  64  81 S15G23    29.86F
JAMESTOWN      CLEAR     67  65  93 S8        29.84F
$$




USA.gov is the U.S. government's official web portal to all federal, state and local government web resources and services.